| time (UTC) | temp F | wind direction | speed MPH | gust MPH | rain 1hr in | rain 24hr in | rain mn in | humidity % | barometer mb |
| 20260906030138 | 80 | 203 | 0.0 | 0.0 | 0.00 | 0.00 | 0.00 | 42 | 1016.5 |
| 20260906024629 | 81 | 240 | 0.0 | 0.0 | 0.00 | 0.00 | 0.00 | 41 | 1016.4 |
| 20260906023126 | 82 | 240 | 0.0 | 1.0 | 0.00 | 0.00 | 0.00 | 40 | 1016.4 |
| 20260906021638 | 82 | 235 | 0.0 | 1.0 | 0.00 | 0.00 | 0.00 | 40 | 1016.4 |
| 20260906020135 | 83 | 258 | 1.0 | 4.0 | 0.00 | 0.00 | 0.00 | 39 | 1016.3 |
| 20260906014647 | 83 | 245 | 0.0 | 1.0 | 0.00 | 0.00 | 0.00 | 38 | 1016.1 |
| 20260906013159 | 84 | 6 | 2.0 | 6.0 | 0.00 | 0.00 | 0.00 | 38 | 1016.0 |
| 20260906011634 | 86 | 69 | 6.0 | 9.0 | 0.00 | 0.00 | 0.00 | 36 | 1016.0 |
| 20260906010127 | 88 | 359 | 1.0 | 8.0 | 0.00 | 0.00 | 0.00 | 31 | 1015.9 |
| 20260906004642 | 91 | 234 | 3.0 | 9.0 | 0.00 | 0.00 | 0.00 | 29 | 1015.8 |
| 20260906003134 | 92 | 213 | 3.0 | 6.0 | 0.00 | 0.00 | 0.00 | 28 | 1015.9 |
| 20260906001625 | 92 | 254 | 4.0 | 10.0 | 0.00 | 0.00 | 0.00 | 28 | 1015.8 |
| 20260906000141 | 91 | 160 | 7.0 | 15.0 | 0.00 | 0.00 | 0.00 | 29 | 1015.9 |
| 20260905234634 | 91 | 171 | 10.0 | 17.0 | 0.00 | 0.00 | 0.00 | 28 | 1016.0 |
| 20260905233130 | 91 | 142 | 10.0 | 20.0 | 0.00 | 0.00 | 0.00 | 28 | 1015.9 |
| 20260905231621 | 93 | 172 | 16.0 | 22.0 | 0.00 | 0.00 | 0.00 | 26 | 1015.9 |
| 20260905230134 | 95 | 230 | 4.0 | 13.0 | 0.00 | 0.00 | 0.00 | 25 | 1015.9 |
| 20260905224631 | 94 | 248 | 4.0 | 8.0 | 0.00 | 0.00 | 0.00 | 25 | 1015.8 |
| 20260905223144 | 95 | 283 | 6.0 | 9.0 | 0.00 | 0.00 | 0.00 | 25 | 1015.9 |
| 20260905221639 | 94 | 297 | 6.0 | 12.0 | 0.00 | 0.00 | 0.00 | 25 | 1015.8 |
| 20260905220131 | 95 | 253 | 4.0 | 10.0 | 0.00 | 0.00 | 0.00 | 25 | 1015.8 |
| 20260905214626 | 95 | 202 | 3.0 | 12.0 | 0.00 | 0.00 | 0.00 | 25 | 1015.7 |
| 20260905213201 | 94 | 347 | 5.0 | 11.0 | 0.00 | 0.00 | 0.00 | 26 | 1015.8 |
| 20260905211631 | 95 | 241 | 5.0 | 10.0 | 0.00 | 0.00 | 0.00 | 25 | 1016.1 |
| 20260905210128 | 95 | 270 | 6.0 | 11.0 | 0.00 | 0.00 | 0.00 | 25 | 1016.4 |
| 20260905204700 | 94 | 340 | 6.0 | 10.0 | 0.00 | 0.00 | 0.00 | 27 | 1016.6 |
| 20260905203156 | 94 | 275 | 5.0 | 8.0 | 0.00 | 0.00 | 0.00 | 28 | 1016.8 |
| 20260905201646 | 94 | 263 | 5.0 | 8.0 | 0.00 | 0.00 | 0.00 | 28 | 1017.0 |
| 20260905200138 | 94 | 297 | 5.0 | 9.0 | 0.00 | 0.00 | 0.00 | 28 | 1017.2 |
| 20260905194653 | 92 | 308 | 1.0 | 6.0 | 0.00 | 0.00 | 0.00 | 30 | 1017.4 |
| 20260905193124 | 93 | 181 | 2.0 | 6.0 | 0.00 | 0.00 | 0.00 | 29 | 1017.7 |
| 20260905191620 | 91 | 257 | 4.0 | 7.0 | 0.00 | 0.00 | 0.00 | 31 | 1017.9 |
| 20260905190133 | 91 | 266 | 3.0 | 7.0 | 0.00 | 0.00 | 0.00 | 33 | 1018.3 |
| 20260905184621 | 89 | 116 | 2.0 | 7.0 | 0.00 | 0.00 | 0.00 | 35 | 1018.6 |
| 20260905183139 | 89 | 102 | 3.0 | 7.0 | 0.00 | 0.00 | 0.00 | 35 | 1018.9 |
| 20260905181650 | 89 | 149 | 2.0 | 5.0 | 0.00 | 0.00 | 0.00 | 36 | 1018.9 |
| 20260905180126 | 89 | 208 | 4.0 | 8.0 | 0.00 | 0.00 | 0.00 | 35 | 1019.2 |
| 20260905174637 | 88 | 295 | 1.0 | 6.0 | 0.00 | 0.00 | 0.00 | 37 | 1019.5 |
| 20260905173130 | 86 | 210 | 2.0 | 7.0 | 0.00 | 0.00 | 0.00 | 39 | 1019.7 |
| 20260905171627 | 85 | 211 | 3.0 | 6.0 | 0.00 | 0.00 | 0.00 | 40 | 1019.7 |
| 20260905170141 | 84 | 195 | 1.0 | 5.0 | 0.00 | 0.00 | 0.00 | 42 | 1019.4 |
| 20260905164635 | 83 | 251 | 5.0 | 7.0 | 0.00 | 0.00 | 0.00 | 43 | 1019.5 |
| 20260905163127 | 82 | 120 | 4.0 | 7.0 | 0.00 | 0.00 | 0.00 | 46 | 1019.6 |
| 20260905161624 | 81 | 155 | 4.0 | 8.0 | 0.00 | 0.00 | 0.00 | 47 | 1019.6 |
| 20260905160136 | 80 | 197 | 4.0 | 8.0 | 0.00 | 0.00 | 0.00 | 48 | 1019.7 |
| 20260905154629 | 79 | 155 | 4.0 | 8.0 | 0.00 | 0.00 | 0.00 | 51 | 1019.9 |
| 20260905153126 | 79 | 132 | 5.0 | 8.0 | 0.00 | 0.00 | 0.00 | 51 | 1019.7 |
| 20260905151637 | 80 | 158 | 5.0 | 10.0 | 0.00 | 0.00 | 0.00 | 51 | 1019.8 |
| 20260905150134 | 79 | 157 | 6.0 | 11.0 | 0.00 | 0.00 | 0.00 | 52 | 1019.8 |
| 20260905144646 | 78 | 165 | 7.0 | 11.0 | 0.00 | 0.00 | 0.00 | 53 | 1019.8 |
| 20260905143121 | 77 | 146 | 8.0 | 12.0 | 0.00 | 0.00 | 0.00 | 54 | 1019.7 |
| 20260905141635 | 77 | 153 | 7.0 | 12.0 | 0.00 | 0.00 | 0.00 | 54 | 1019.6 |
| 20260905134622 | 75 | 157 | 5.0 | 11.0 | 0.00 | 0.00 | 0.00 | 56 | 1019.3 |
| 20260905133134 | 74 | 147 | 4.0 | 10.0 | 0.00 | 0.00 | 0.00 | 57 | 1019.2 |
| 20260905131650 | 72 | 137 | 4.0 | 9.0 | 0.00 | 0.00 | 0.00 | 58 | 1018.9 |
| 20260905130121 | 71 | 132 | 4.0 | 6.0 | 0.00 | 0.00 | 0.00 | 57 | 1018.7 |
| 20260905124654 | 71 | 151 | 3.0 | 6.0 | 0.00 | 0.00 | 0.00 | 57 | 1018.5 |
| 20260905123129 | 71 | 133 | 4.0 | 6.0 | 0.00 | 0.00 | 0.00 | 58 | 1018.2 |
| 20260905121641 | 71 | 146 | 3.0 | 7.0 | 0.00 | 0.00 | 0.00 | 58 | 1018.0 |
| 20260905120136 | 71 | 147 | 2.0 | 6.0 | 0.00 | 0.00 | 0.00 | 58 | 1017.7 |
| 20260905114628 | 70 | 156 | 3.0 | 7.0 | 0.00 | 0.00 | 0.00 | 59 | 1017.9 |
| 20260905113124 | 68 | 142 | 2.0 | 4.0 | 0.00 | 0.00 | 0.00 | 58 | 1017.7 |
| 20260905111656 | 67 | 135 | 1.0 | 2.0 | 0.00 | 0.00 | 0.00 | 60 | 1017.5 |
| 20260905110150 | 67 | 221 | 0.0 | 1.0 | 0.00 | 0.00 | 0.00 | 61 | 1017.4 |
| 20260905104645 | 67 | 56 | 0.0 | 0.0 | 0.00 | 0.00 | 0.00 | 61 | 1017.4 |
| 20260905103157 | 67 | 56 | 0.0 | 0.0 | 0.00 | 0.00 | 0.00 | 58 | 1017.1 |
| 20260905101628 | 69 | 58 | 0.0 | 1.0 | 0.00 | 0.00 | 0.00 | 56 | 1017.0 |
| 20260905100146 | 69 | 59 | 0.0 | 1.0 | 0.00 | 0.00 | 0.00 | 56 | 1016.9 |
| 20260905094637 | 70 | 282 | 0.0 | 0.0 | 0.00 | 0.00 | 0.00 | 54 | 1017.0 |
| 20260905093133 | 70 | 282 | 0.0 | 1.0 | 0.00 | 0.00 | 0.00 | 55 | 1017.0 |
| 20260905091645 | 71 | 151 | 0.0 | 0.0 | 0.00 | 0.00 | 0.00 | 54 | 1016.9 |
| 20260905090135 | 72 | 151 | 0.0 | 0.0 | 0.00 | 0.00 | 0.00 | 53 | 1016.9 |
| 20260905084652 | 72 | 151 | 0.0 | 1.0 | 0.00 | 0.00 | 0.00 | 52 | 1016.9 |
| 20260905083125 | 72 | 121 | 0.0 | 0.0 | 0.00 | 0.00 | 0.00 | 52 | 1016.9 |
| 20260905081621 | 73 | 121 | 0.0 | 0.0 | 0.00 | 0.00 | 0.00 | 52 | 1017.0 |
| 20260905080135 | 73 | 121 | 0.0 | 1.0 | 0.00 | 0.00 | 0.00 | 51 | 1017.1 |
| 20260905074624 | 73 | 103 | 1.0 | 2.0 | 0.00 | 0.00 | 0.00 | 52 | 1017.2 |
| 20260905073120 | 73 | 118 | 0.0 | 1.0 | 0.00 | 0.00 | 0.00 | 51 | 1017.1 |
| 20260905071631 | 74 | 150 | 0.0 | 1.0 | 0.00 | 0.00 | 0.00 | 49 | 1017.3 |
| 20260905070127 | 74 | 111 | 0.0 | 0.0 | 0.00 | 0.00 | 0.00 | 49 | 1017.3 |
| 20260905064620 | 74 | 111 | 0.0 | 0.0 | 0.00 | 0.00 | 0.00 | 49 | 1017.2 |
| 20260905063136 | 75 | 110 | 0.0 | 0.0 | 0.00 | 0.00 | 0.00 | 48 | 1017.2 |
| 20260905061652 | 75 | 110 | 0.0 | 0.0 | 0.00 | 0.00 | 0.00 | 48 | 1017.3 |
| 20260905060122 | 75 | 111 | 0.0 | 0.0 | 0.00 | 0.00 | 0.00 | 47 | 1017.3 |
| 20260905054635 | 75 | 110 | 0.0 | 0.0 | 0.00 | 0.00 | 0.00 | 47 | 1017.1 |
| 20260905053131 | 75 | 254 | 0.0 | 0.0 | 0.00 | 0.00 | 0.00 | 46 | 1017.1 |
| 20260905051643 | 76 | 151 | 0.0 | 0.0 | 0.00 | 0.00 | 0.00 | 46 | 1017.4 |
| 20260905050138 | 76 | 151 | 0.0 | 0.0 | 0.00 | 0.00 | 0.00 | 44 | 1017.5 |
| 20260905044629 | 76 | 222 | 0.0 | 1.0 | 0.00 | 0.00 | 0.00 | 43 | 1017.4 |
| 20260905043122 | 78 | 229 | 0.0 | 1.0 | 0.00 | 0.00 | 0.00 | 41 | 1017.4 |
| 20260905041639 | 81 | 101 | 0.0 | 1.0 | 0.00 | 0.00 | 0.00 | 39 | 1017.4 |
| 20260905040130 | 80 | 123 | 1.0 | 2.0 | 0.00 | 0.00 | 0.00 | 39 | 1017.4 |
| 20260905034624 | 79 | 40 | 0.0 | 0.0 | 0.00 | 0.00 | 0.00 | 38 | 1017.3 |
| 20260905033136 | 80 | 40 | 0.0 | 1.0 | 0.00 | 0.00 | 0.00 | 37 | 1017.2 |
| 20260905031628 | 81 | 75 | 0.0 | 2.0 | 0.00 | 0.00 | 0.00 | 36 | 1017.0 |